Location: *
(45.9500°N, 9.0833°E)
Time: 06:20:10
(UTC+00:00)

YAOGAN 1 - Pass Details

Date: 03 March 2021
Orbit: 618 x 620 km, 97.9° (Epoch: 18 April)

Event Time Altitude Azimuth Distance (km) Brightness Sun altitude
Rises 17:37:06 0° 151° (SSE) 2,885 5.7 -5.0°
Reaches altitude 10° 17:39:19 10° 146° (SE) 1,984 4.9 -5.4°
Maximum altitude 17:43:29 50° 72° (ENE) 799 2.8 -6.1°
Drops below altitude 10° 17:47:41 10° 357° (N) 1,999 5.2 -6.8°
Sets 17:49:56 0° 352° (N) 2,910 6.1 -7.2°
